Stations météo

Publicité
Lyon/Bron, France (7480): Température de l'air & dewpoint: 26.06.2020 14:00:00 - 02.07.2020 14:00:00 (CEST)Lyon/Bron, France (7480): Température de l'air 5cm: 26.06.2020 14:00:00 - 02.07.2020 14:00:00 (CEST)Lyon/Bron, France (7480): Température de l'air -20cm: 26.06.2020 14:00:00 - 02.07.2020 14:00:00 (CEST)Lyon/Bron, France (7480): Vitesse du vent & gusts: 26.06.2020 14:00:00 - 02.07.2020 14:00:00 (CEST)Lyon/Bron, France (7480): Direction du vent: 26.06.2020 14:00:00 - 02.07.2020 14:00:00 (CEST)Lyon/Bron, France (7480): reduced air pressure: 26.06.2020 14:00:00 - 02.07.2020 14:00:00 (CEST)Lyon/Bron, France (7480): visibility: 26.06.2020 14:00:00 - 02.07.2020 14:00:00 (CEST)Lyon/Bron, France (7480): Ensoleillement: 26.06.2020 14:00:00 - 02.07.2020 14:00:00 (CEST)Lyon/Bron, France (7480): Quantités de précipitations: 26.06.2020 14:00:00 - 02.07.2020 14:00:00 (CEST)
Date & Time tt [°C] td [°C] tt 5cm [°C] tt -20cm [°C] ff [km/h] ff [knt] fx [km/h] fx [knt] dd ppp [hPa] vv [km] sd [min] rr [mm]
02.07.2020 14:00:00 25,3 17,0 26,8 24,5 14 8 26 14 N 1014,3 18 27 0,0
02.07.2020 13:00:00 25,2 17,7 30,7 24,3 10 5 33 18 N 1014,4 20 43 0,0
02.07.2020 12:00:00 24,9 17,9 26,9 24,3 11 6 22 12 N 1014,4 47 27 0,0
02.07.2020 11:00:00 24,3 15,8 25,7 24,2 8 5 20 11 NNE 1014,5 46 38 0,0
02.07.2020 10:00:00 24,0 15,8 24,6 24,3 13 7 25 14 NW 1014,5 38 38 0,0
02.07.2020 09:00:00 22,8 15,9 23,0 24,3 11 6 17 9 NNW 1014,5 35 12 0,0
02.07.2020 08:00:00 21,4 18,6 21,0 24,4 6 3 9 5 N 1014,3 23 0 0,0
02.07.2020 07:00:00 20,7 18,5 20,1 24,6 3 1 8 4 ENE 1014,1 22 0 0,0
02.07.2020 06:00:00 20,5 18,4 19,9 24,7 4 2 8 5 SSW 1014,1 26 0 0,0
02.07.2020 05:00:00 20,4 18,3 18,3 24,9 5 3 8 4 S 1013,8 26 0 0,0
02.07.2020 04:00:00 20,4 18,0 19,4 25,0 5 3 8 4 SSW 1013,6 28 0 0,0
02.07.2020 03:00:00 20,1 17,9 18,9 25,2 0 0 6 4 N 1013,6 31 0 0,0
02.07.2020 02:00:00 20,3 17,7 19,1 25,4 0 0 7 4 N 1013,6 29 0 0,0
02.07.2020 01:00:00 20,1 17,5 18,8 25,6 3 2 11 6 SSE 1013,8 32 0 0,0
02.07.2020 00:00:00 20,5 17,3 19,1 25,8 6 3 11 6 SE 1013,2 42 0 0,0
01.07.2020 23:00:00 20,8 18,0 19,7 25,9 7 4 10 6 SSE 1013,1 39 0 0,0
01.07.2020 22:00:00 21,7 18,1 19,8 26,0 5 3 12 7 ESE 1012,6 16 7 0,0
01.07.2020 21:00:00 23,1 18,4 22,4 26,1 3 2 11 6 ESE 1012,1 43 52 0,0
01.07.2020 20:00:00 22,0 18,6 20,9 26,2 4 2 19 10 E 1012,3 38 0 0,0
01.07.2020 19:00:00 21,5 17,7 21,0 26,1 4 2 27 15 WSW 1011,8 39 0 0,0
01.07.2020 18:00:00 20,7 17,1 17,9 26,0 9 5 79 43 WNW 1011,2 52 0 4,5
01.07.2020 17:00:00 28,1 18,8 21,8 25,6 21 11 36 19 S 1009,7 14 5 0,4
01.07.2020 16:00:00 32,3 17,0 34,9 25,2 11 6 26 14 SSE 1008,8 27 50 0,0
01.07.2020 15:00:00 31,6 17,5 34,9 24,8 12 7 27 14 S 1009,0 28 48 0,0
01.07.2020 14:00:00 31,1 18,5 34,8 24,5 4 2 19 10 E 1009,8 27 39 0,0
01.07.2020 13:00:00 29,3 17,5 34,0 24,3 4 2 16 9 NNE 1010,2 18 55 0,0
01.07.2020 12:00:00 28,1 17,0 33,6 24,2 6 3 14 8 WSW 1010,4 46 60 0,0
01.07.2020 11:00:00 25,8 16,9 29,1 24,1 5 3 21 12 SW 1010,8 30 49 0,0
01.07.2020 10:00:00 24,1 15,8 26,3 24,2 11 6 18 10 S 1011,2 27 54 0,0
01.07.2020 09:00:00 22,5 15,3 24,3 24,4 10 5 20 11 S 1011,8 18 60 0,0
01.07.2020 08:00:00 21,1 15,0 18,5 24,5 10 6 16 9 S 1011,7 20 58 0,0
01.07.2020 07:00:00 18,8 14,3 16,9 24,8 4 2 8 4 S 1011,8 44 40 0,0
01.07.2020 06:00:00 18,5 14,0 15,2 24,9 6 4 9 5 S 1011,7 34 0 0,0
01.07.2020 05:00:00 18,2 14,3 15,3 25,1 4 2 9 5 SSE 1011,6 36 0 0,0
01.07.2020 04:00:00 19,1 14,6 15,6 25,3 3 1 5 3 SE 1011,5 42 0 0,0
01.07.2020 03:00:00 19,3 14,3 15,9 25,5 2 1 5 3 WNW 1011,9 40 0 0,0
01.07.2020 02:00:00 20,3 14,2 16,9 25,7 3 2 6 3 SSE 1012,2 37 0 0,0
01.07.2020 01:00:00 22,5 14,1 20,0 25,8 5 3 14 8 NE 1012,3 40 0 0,0
01.07.2020 00:00:00 23,1 13,8 20,1 25,9 3 1 7 4 N 1012,1 39 0 0,0
30.06.2020 23:00:00 23,8 13,3 20,7 26,1 7 4 11 6 E 1012,0 35 0 0,0
30.06.2020 22:00:00 25,1 13,3 22,4 26,1 8 4 17 9 NE 1011,6 41 7 0,0
30.06.2020 21:00:00 27,3 13,3 27,4 26,0 11 6 20 11 ENE 1011,0 41 60 0,0
30.06.2020 20:00:00 27,9 12,7 26,6 25,9 9 5 15 8 NNE 1011,0 46 29 0,0
30.06.2020 19:00:00 27,5 12,3 27,1 25,7 9 5 18 10 NE 1011,2 53 27 0,0
30.06.2020 18:00:00 29,2 11,7 33,7 25,3 5 3 19 10 ESE 1011,4 34 60 0,0
30.06.2020 17:00:00 29,0 11,5 34,4 24,9 6 4 23 12 NNW 1012,0 45 56 0,0
30.06.2020 16:00:00 27,7 11,3 33,5 24,5 6 3 17 9 S 1012,6 45 60 0,0
30.06.2020 15:00:00 27,0 10,7 33,0 24,1 8 4 19 10 WNW 1013,4 53 60 0,0
30.06.2020 14:00:00 25,9 9,7 31,0 23,7 4 2 18 10 SSW 1013,9 26 60 0,0
30.06.2020 13:00:00 24,5 10,7 30,7 23,5 7 4 20 11 NNW 1014,6 43 60 0,0
30.06.2020 12:00:00 23,5 11,5 29,1 23,3 7 4 17 9 N 1015,0 19 60 0,0
30.06.2020 11:00:00 23,1 11,5 28,5 23,3 5 3 17 9 ENE 1015,3 41 60 0,0
30.06.2020 10:00:00 21,7 11,1 27,2 23,4 5 3 13 7 NNW 1016,0 25 60 0,0
30.06.2020 09:00:00 20,7 10,2 23,4 23,6 6 3 13 7 NNW 1016,0 53 60 0,0
30.06.2020 08:00:00 18,9 10,5 14,3 23,8 6 3 10 5 NNW 1016,2 27 60 0,0
30.06.2020 07:00:00 14,9 10,9 11,5 24,0 0 0 3 2 N 1016,5 40 40 0,0
30.06.2020 06:00:00 14,4 10,6 11,4 24,2 2 1 3 2 S 1016,9 38 0 0,0
30.06.2020 05:00:00 14,9 10,3 11,6 24,5 0 0 8 4 N 1016,7 42 0 0,0
30.06.2020 04:00:00 16,2 10,1 13,0 24,7 5 3 15 8 NW 1017,1 59 0 0,0
30.06.2020 03:00:00 17,5 10,4 16,0 24,9 10 5 19 10 NNW 1017,0 57 0 0,0
30.06.2020 02:00:00 18,2 10,6 16,4 25,1 10 6 23 13 N 1017,1 58 0 0,0
30.06.2020 01:00:00 19,1 11,1 17,9 25,3 11 6 29 16 N 1016,8 57 0 0,0
30.06.2020 00:00:00 20,5 11,1 19,2 25,5 15 8 31 17 N 1016,2 59 0 0,0
29.06.2020 23:00:00 21,9 12,2 20,5 25,7 19 10 30 16 NNW 1015,5 52 0 0,0
29.06.2020 22:00:00 22,6 12,5 20,7 25,8 11 6 18 10 N 1014,8 49 7 0,0
29.06.2020 21:00:00 23,9 13,1 22,6 25,8 11 6 23 13 N 1014,2 50 9 0,0
29.06.2020 20:00:00 25,2 12,8 24,6 25,7 15 8 24 13 NNE 1013,9 38 26 0,0
29.06.2020 19:00:00 26,7 12,7 28,2 25,6 13 7 26 14 N 1013,9 40 46 0,0
29.06.2020 18:00:00 27,4 13,7 28,6 25,3 10 5 28 15 ENE 1014,1 20 41 0,0
29.06.2020 17:00:00 27,1 13,4 28,0 25,1 14 8 32 17 NE 1014,5 58 27 0,0
29.06.2020 16:00:00 26,3 13,1 28,3 24,7 9 5 26 14 ENE 1015,0 47 37 0,0
29.06.2020 15:00:00 26,8 13,5 30,3 24,4 11 6 27 15 NE 1015,4 56 54 0,0
29.06.2020 14:00:00 26,0 14,5 30,6 24,2 12 6 27 15 NNE 1015,9 60 55 0,0
29.06.2020 13:00:00 25,1 15,4 25,3 24,0 8 5 20 11 E 1016,3 60 22 0,0
29.06.2020 12:00:00 24,1 15,6 27,1 23,9 10 5 28 15 NNE 1016,7 44 46 0,0
29.06.2020 11:00:00 22,5 14,9 24,2 24,0 11 6 23 13 NNW 1017,2 50 7 0,0
29.06.2020 10:00:00 22,9 15,7 24,3 24,0 8 5 17 9 NNW 1017,2 36 45 0,0
29.06.2020 09:00:00 20,6 16,0 20,5 24,1 4 2 11 6 N 1017,2 38 6 0,0
29.06.2020 08:00:00 19,5 15,2 19,2 24,3 7 4 10 6 N 1016,9 42 0 0,0
29.06.2020 07:00:00 18,8 15,3 17,8 24,4 2 1 4 2 SW 1016,4 36 4 0,0
29.06.2020 06:00:00 18,3 15,0 16,8 24,6 0 0 3 2 N 1016,1 39 0 0,0
29.06.2020 05:00:00 18,6 14,9 17,8 24,8 0 0 5 3 N 1016,2 44 0 0,0
29.06.2020 04:00:00 18,7 14,6 18,0 25,0 3 2 8 4 NE 1016,6 57 0 0,0
29.06.2020 03:00:00 18,9 14,8 18,4 25,2 5 3 11 6 NNW 1016,9 59 0 0,0
29.06.2020 02:00:00 19,0 14,9 18,6 25,4 6 3 14 8 NNW 1017,4 52 0 0,0
29.06.2020 01:00:00 19,1 14,8 18,7 25,6 10 6 13 7 NNW 1017,9 51 0 0,0
29.06.2020 00:00:00 19,1 15,0 18,7 25,8 9 5 21 12 N 1018,2 50 0 0,0
28.06.2020 23:00:00 19,3 15,4 18,9 26,0 13 7 32 18 N 1018,1 46 0 0,0
28.06.2020 22:00:00 20,5 15,7 19,9 26,1 21 11 43 23 N 1017,6 48 0 0,0
28.06.2020 21:00:00 22,9 16,4 22,3 26,2 19 11 35 19 N 1016,6 52 0 0,0
28.06.2020 20:00:00 24,7 19,3 24,6 26,1 7 4 18 10 E 1015,7 37 0 0,0
28.06.2020 19:00:00 24,6 19,7 21,7 26,1 13 7 26 14 N 1015,2 46 4 0,6
28.06.2020 18:00:00 24,3 20,0 21,2 25,9 14 7 29 16 N 1015,0 22 0 3,7
28.06.2020 17:00:00 28,9 16,5 29,8 25,6 6 4 26 14 W 1014,1 47 47 0,0
28.06.2020 16:00:00 29,0 16,5 31,3 25,3 13 7 28 15 SSE 1014,7 26 40 0,0
28.06.2020 15:00:00 28,8 16,7 32,2 25,0 12 6 23 12 SSE 1015,3 20 33 0,0
28.06.2020 14:00:00 28,0 16,9 32,0 24,7 10 5 20 11 SSE 1016,1 60 30 0,0
28.06.2020 13:00:00 28,0 16,9 33,8 24,5 6 4 19 10 SE 1016,9 37 58 0,0
28.06.2020 12:00:00 26,4 17,2 27,3 24,4 5 3 19 10 E 1017,4 41 35 0,0
28.06.2020 11:00:00 25,8 16,9 28,1 24,3 9 5 22 12 ENE 1017,5 17 48 0,0
28.06.2020 10:00:00 24,6 16,8 25,8 24,4 11 6 22 12 NNE 1017,8 44 56 0,0
28.06.2020 09:00:00 22,8 17,5 22,7 24,5 11 6 18 10 NNE 1017,9 33 7 0,0
28.06.2020 08:00:00 21,9 17,5 20,7 24,7 8 4 13 7 NNW 1017,6 34 0 0,0
28.06.2020 07:00:00 21,3 19,0 20,0 24,8 5 3 9 5 NNW 1017,5 15 0 0,0
28.06.2020 06:00:00 21,1 18,1 19,7 25,0 2 1 12 7 NNE 1017,0 21 0 0,0
28.06.2020 05:00:00 20,7 17,9 19,5 25,1 3 1 9 5 SW 1016,5 26 0 0,0
28.06.2020 04:00:00 20,8 18,0 18,8 25,3 6 4 10 6 SSE 1016,3 32 0 0,0
28.06.2020 03:00:00 21,0 19,5 18,6 25,5 7 4 10 6 SSE 1016,2 20 0 0,0
28.06.2020 02:00:00 21,2 19,8 18,8 25,7 3 1 6 4 WSW 1016,1 14 0 0,0
28.06.2020 01:00:00 21,5 19,4 19,3 25,8 4 2 10 5 W 1015,9 20 0 0,0
28.06.2020 00:00:00 22,4 19,0 19,6 25,9 5 3 22 12 E 1015,4 30 0 1,0
27.06.2020 23:00:00 24,6 15,8 22,4 26,0 4 2 6 4 WSW 1015,0 47 0 0,0
27.06.2020 22:00:00 25,0 15,3 22,5 26,1 2 1 9 5 W 1014,3 42 7 0,0
27.06.2020 21:00:00 26,0 15,7 24,7 26,1 0 0 19 10 N 1013,6 54 25 0,0
27.06.2020 20:00:00 25,7 15,1 25,4 25,9 14 7 44 24 W 1013,6 60 0 0,0
27.06.2020 19:00:00 29,5 14,1 28,8 25,7 18 10 32 18 S 1012,8 48 29 0,0
27.06.2020 18:00:00 31,4 12,7 35,1 25,4 16 9 34 18 SSE 1012,4 35 60 0,0
27.06.2020 17:00:00 31,2 13,5 35,2 25,0 16 9 31 17 SSE 1012,8 19 60 0,0
27.06.2020 16:00:00 30,9 13,2 31,7 24,6 13 7 31 17 SSE 1012,9 48 55 0,0
27.06.2020 15:00:00 30,5 13,3 34,3 24,2 18 10 31 17 S 1013,4 37 60 0,0
27.06.2020 14:00:00 29,8 13,5 34,4 23,9 18 10 31 17 SSE 1013,9 41 60 0,0
27.06.2020 13:00:00 29,0 13,6 34,1 23,7 15 8 29 15 SE 1014,3 41 60 0,0
27.06.2020 12:00:00 27,7 12,5 29,6 23,6 16 9 27 15 S 1014,6 39 60 0,0
27.06.2020 11:00:00 25,7 13,2 25,3 23,8 20 11 38 20 SSW 1014,7 45 34 0,0
27.06.2020 10:00:00 23,4 13,3 23,2 23,9 23 13 40 22 S 1014,8 59 5 0,0
27.06.2020 09:00:00 22,5 12,1 22,1 24,0 20 11 39 21 S 1014,4 49 6 0,0
27.06.2020 08:00:00 22,2 12,2 19,8 24,1 21 11 37 20 S 1013,8 48 20 0,0
27.06.2020 07:00:00 20,4 13,6 18,9 24,3 19 11 34 18 S 1013,8 45 10 0,0
27.06.2020 06:00:00 20,0 13,7 18,8 24,5 14 8 23 13 SSE 1013,8 58 0 0,0
27.06.2020 05:00:00 19,8 14,4 18,1 24,7 8 4 26 14 SSE 1014,2 58 0 0,0
27.06.2020 04:00:00 20,8 14,9 17,6 24,9 10 5 24 13 S 1014,5 20 0 0,2
27.06.2020 03:00:00 23,0 12,3 21,5 25,0 8 4 23 12 SSW 1014,8 60 0 0,0
27.06.2020 02:00:00 23,5 12,5 22,0 25,2 14 7 33 18 SSW 1014,3 60 0 0,0
27.06.2020 01:00:00 24,3 12,9 22,4 25,4 11 6 29 15 S 1013,3 60 0 0,0
27.06.2020 00:00:00 24,3 13,5 22,1 25,6 15 8 36 20 S 1012,2 60 0 0,0
26.06.2020 23:00:00 24,9 15,0 23,0 25,7 13 7 22 12 S 1012,0 58 0 0,0
26.06.2020 22:00:00 26,0 16,0 24,2 25,8 11 6 25 13 SSE 1011,8 50 0 0,0
26.06.2020 21:00:00 27,0 16,3 25,4 25,9 12 6 22 12 S 1011,9 47 0 0,0
26.06.2020 20:00:00 27,6 15,6 26,2 25,8 16 8 28 15 S 1011,9 49 0 0,0
26.06.2020 19:00:00 29,1 15,6 28,8 25,7 13 7 29 15 SSE 1011,4 55 0 0,0
26.06.2020 18:00:00 30,5 15,8 29,8 25,4 17 9 29 16 S 1011,5 58 39 0,0
26.06.2020 17:00:00 29,8 15,5 31,9 25,1 18 10 31 17 S 1012,4 48 51 0,0
26.06.2020 16:00:00 28,9 15,8 32,3 24,8 13 7 27 14 S 1013,1 29 60 0,0
26.06.2020 15:00:00 27,4 15,1 31,1 24,4 15 8 27 14 SSE 1014,1 31 46 0,0
26.06.2020 14:00:00 25,5 17,4 31,4 24,3 9 5 21 12 SSE 1015,0 60 60 0,0

tt = Température de l'air
td = dewpoint
tt 5cm = Température de l'air 5cm
tt -20cm = Température de l'air -20cm
ff = Vitesse du vent
fx = gusts
dd = Direction du vent
ppp = reduced air pressure
vv = visibility
sd = Ensoleillement
rr = Quantités de précipitations

stations d'obs. à proximité